sat.trackr.live / text

‹ back to catalog

STARLINK-5130

NORAD 53997 · 2022-125AK

PAYLOAD ACTIVE UNKNOWN

§ Identity

Operator
Country
US
Launch date
2022-10-05
Launch site
AFWTR
Launch vehicle
Mass (kg)
RCS (m²)

Purposes: comms

External: N2YO · Heavens-Above · Gunter

§ Orbital elements

Epoch: 2026-09-20T14:32:15.169632Z

Period
93.85 min
Inclination
53.1611°
Eccentricity
0.0001127
Mean motion
15.34389788 rev/d
Perigee alt
462.0 km
Apogee alt
463.5 km
Semi-major
6,840.9 km
B*
2.5687e-5
RAAN
35.4691°
Arg perigee
83.3397°
Mean anomaly
276.7734°
Rev number
21,920

§ Raw data

STARLINK-51301 53997U 22125AK  26263.60573113  .00000492  00000+0  25687-4 0  99962 53997  53.1611  35.4691 0001127  83.3397 276.7734 15.34389788219200

JSON: /api/v1/satellites/53997 · /tle

For live sub-satellite position, see the globe view (requires WebGL).

§ Visibility from observer

Set your observer location to see the next 7 days of passes ≥ 10°. The values pass through the URL so the page stays shareable.

No JS? Fill the form by hand. The geolocation button needs JavaScript.